Location: Ay?beleni
(36.6500°N, 30.3000°E)
Time: 03:27:02
(UTC+00:00)

Meteor 1-16 Rocket - Pass Details

Date: 16 October 2021
Orbit: 790 x 908 km, 81.2° (Epoch: 08 December)

Event Time Altitude Azimuth Distance (km) Brightness Sun altitude
Rises 16:11:30 0° 179° (S) 3,517 7.5 -10.9°
Reaches altitude 10° 16:13:58 10° 176° (S) 2,582 6.7 -11.4°
Maximum altitude 16:19:49 66° 95° (E) 981 4.3 -12.5°
Drops below altitude 10° 16:25:39 10° 15° (NNE) 2,571 6.6 -13.7°
Sets 16:28:06 0° 12° (NNE) 3,502 7.3 -14.2°
